User: anonymous   Login
Location: Wawayanda State Park
(41.1833°N, 74.4333°W)
Time: 03:21:34
(UTC-04:00)
Language:

RESURS DK-1 - Orbit

View from above orbital plane
View from above orbital plane
View from above satellite
View from above satellite

Ground track
Ground track

The orbit data is extracted from the following two-line orbital elements,

1 29228U 06021A   15212.05070228  .00000347  00000-0  34189-4 0  9990
2 29228 069.9375 045.5960 0007030 294.2112 065.8319 15.01554889504933
Epoch (UTC): 31 July 2015 01:13:00
Eccentricity: 0.0007030
inclination: 69.9375°
perigee height: 557 km
apogee height: 567 km
right ascension of ascending node: 45.5960°
argument of perigee: 294.2112°
revolutions per day: 15.01554889
mean anomaly at epoch: 65.8319°
orbit number at epoch: 50493

The dashed part of the orbit path shows where the satellite is in the earth's shadow,  

DLR